Index of /000 2021 Timetables

 NameLast modifiedSizeDescription

 Parent Directory   -  
 003 Perth 3rd August..>2021-03-16 22:19 45K 
 004 Perth 3rd August..>2021-03-16 22:19 48K 
 001 002 Perth 3rd Au..>2021-03-16 22:19 58K 
 002 Dundee Xplore D..>2021-03-16 22:19 1.0M 
 001 Dundee Xplore D..>2021-03-16 22:19 563K 
 004 004A Dundee Xpl..>2021-03-16 22:19 537K 
 005 006 Perth 3rd Au..>2021-03-16 22:19 48K 
 007 007A 007B 007C 0..>2021-03-16 22:19 62K 
 009 Montrose 3rd Aug..>2021-03-16 22:19 48K 
 007 007A 007B 008 00..>2021-03-16 22:19 235K 
 011 Perth 3rd August..>2021-03-16 22:19 45K 
 009 Perth 3rd August..>2021-03-16 22:19 55K 
 009S 15th March 2021..>2021-03-16 22:19 16K 
 012 Perth 3rd August..>2021-03-16 22:19 44K 
 014 014A 3rd August ..>2021-03-16 22:19 54K 
 013 Perth 3rd August..>2021-03-16 22:19 47K 
 014S 15th March 202..>2021-03-16 22:19 15K 
 016 016B Dundee Pert..>2021-03-16 22:19 57K 
 017 Perth 25th Janua..>2021-03-16 22:19 31K 
 017S 15th March 202..>2021-03-16 22:19 13K 
 015 015A Perth 24th ..>2021-03-16 22:19 49K 
 019 019A 020 020A DO..>2021-03-16 22:19 121K 
 018 155 Auchterarder..>2021-03-16 22:19 277K 
 019 STAGECOACH ONLY ..>2021-03-16 22:19 52K 
 022 022D Kirriemuir ..>2021-03-16 22:19 45K 
 020 020A 020B 020D 0..>2021-03-16 22:19 74K 
 018 Dundee Xplore D..>2021-03-16 22:19 797K 
 023 Forfar 114 117 p..>2021-03-16 22:19 125K 
 023 023A 023B 023X P..>2021-03-16 22:19 59K 
 023S 15th March 2021..>2021-03-16 22:19 13K 
 024 027 Pitlochry 3r..>2021-03-16 22:19 45K 
 017 917 Dundee Xplo..>2021-03-16 22:19 964K 
 023 Dundee Xplore D..>2021-03-16 22:19 478K 
 006A 006C Dundee Xp..>2021-03-16 22:19 732K 
 027 027A 027B 027C F..>2021-03-16 22:19 44K 
 027S 15th March 2021..>2021-03-16 22:19 13K 
 028S 15th March 2021..>2021-03-16 22:19 15K 
 029 Smith & Sons Apr..>2021-03-16 22:19 98K 
 029S 15th March 2021..>2021-03-16 22:19 15K 
 030 031 051 Dundee A..>2021-03-16 22:19 96K 
 030 030A 030B 030C 0..>2021-03-16 22:19 459K 
 036 Guthrie April 20..>2021-03-16 22:19 35K 
 028 928 Dundee Xplo..>2021-03-16 22:19 1.3M 
 034 034C 834 3rd Aug..>2021-03-16 22:19 63K 
 036 Abernethy Stagec..>2021-03-16 22:19 44K 
 032 033 Dundee Xplo..>2021-03-16 22:19 512K 
 036C Dundee Xplore D..>2021-03-16 22:19 45K 
 039 Arbroath 10th Au..>2021-03-16 22:19 33K 
 042 Arbroath 3rd Aug..>2021-03-16 22:19 42K 
 042 Dundee Stagecoac..>2021-03-16 22:19 66K 
 022 Downfield Xplore..>2021-03-16 22:19 562K 
 034 Brechin 3rd Augu..>2021-03-16 22:19 26K 
 043 043A 043B 043C A..>2021-03-16 22:19 54K 
 044 Arbroath 3rd Aug..>2021-03-16 22:19 47K 
 009 010 909 910 Dund..>2021-03-16 22:19 1.4M 
 005 905 part 009 010..>2021-03-16 22:19 1.5M 
 045 Crieff 10th Octo..>2021-03-16 22:19 208K 
 046 Arbroath 050 rep..>2021-03-16 22:19 56K 
 047 047A 047B Montro..>2021-03-16 22:19 127K 
 051 Abernyte Perth 3..>2021-03-16 22:19 42K 
 049 049A Auchterarde..>2021-03-16 22:19 212K 
 052 Montrose 3rd Aug..>2021-03-16 22:19 45K 
 046 Crieff 10th Octo..>2021-03-16 22:19 192K 
 041 018 Kirkcaldy 10..>2021-03-16 22:19 126K 
 056 056A 056B Stagec..>2021-03-16 22:19 29K 
 042B Service numbers..>2021-03-16 22:19 124K 
 053 xd CFS.pdf 2021-03-16 22:19 617K 
 055 Kinross 19th Oct..>2021-03-16 22:19 192K 
 058 058A 3rd August ..>2021-03-16 22:19 54K 
 059 Stirling 8th Feb..>2021-03-16 22:19 14K 
 057A 059 XD ONLY jou..>2021-03-16 22:19 197K 
 057 057A 057C 3rd Au..>2021-03-16 22:19 333K 
 059 Dundee 3rd Augus..>2021-03-16 22:19 311K 
 060 Blairgowrie 3rd..>2021-03-16 22:19 44K 
 063 Blairgowrie 3rd ..>2021-03-16 22:19 45K 
 066 066A Perth also ..>2021-03-16 22:19 44K 
 069 070 Cupar 10th A..>2021-03-16 22:19 37K 
 070 Perth 3rd August..>2021-03-16 22:19 43K 
 057B 57 59 Dundee Bl..>2021-03-16 22:19 2.0M 
 071 Blairgowrie 3rd ..>2021-03-16 22:19 48K 
 077 Dundee Stagecoac..>2021-03-16 22:19 47K 
 071 809 reprinted re..>2021-03-16 22:19 64K 
 073 073A 073B Dundee..>2021-03-16 22:19 205K 
 077B M&W Journeys Wo..>2021-03-16 22:19 76K 
 078A 078C 079A 079C ..>2021-03-16 22:19 42K 
 081 June 2017 reprin..>2021-03-16 22:19 19K 
 082 Pitlochry 23rd J..>2021-03-16 22:19 150K 
 091 091A 091B Aberfe..>2021-03-16 22:19 52K 
 088 Dundee August 20..>2021-03-16 22:19 121K 
 099 099A 099B 099C 0..>2021-03-16 22:19 108K 
 104 Stonehaven Janua..>2021-03-16 22:19 70K 
 083 087 Pitlochry 3r..>2021-03-16 22:19 105K 
 118 Forfar reprinted..>2021-03-16 22:19 28K 
 116 3rd August 2020.pdf2021-03-16 22:19 41K 
 121 Kirriemuir repri..>2021-03-16 22:19 34K 
 125 part 20C July 20..>2021-03-16 22:19 44K 
 092 092A 092B 092C 0..>2021-03-16 22:19 864K 
 115 Comrie 24th Febr..>2021-03-16 22:19 595K 
 128 128 KIrriemuir J..>2021-03-16 22:19 48K 
 137 138 Dundee 9th A..>2021-03-16 22:19 278K 
 198 199 Dundee repri..>2021-03-16 22:19 32K 
 201 Kinross 3rd Augu..>2021-03-16 22:19 48K 
 202 Dundee 3rd Augus..>2021-03-16 22:19 45K 
 140 141 Brechin Augu..>2021-03-16 22:19 442K 
 139 Dundee 9th Augus..>2021-03-16 22:19 362K 
 206 Dundee 3rd Augus..>2021-03-16 22:19 45K 
 236 reprint minus XD..>2021-03-16 22:19 72K 
 747 Edinburgh Airpor..>2021-03-16 22:19 92K 
 904 London 1st July ..>2021-03-16 22:19 266K 
 592 September 2018 ..>2021-03-16 22:19 763K 
 590 Jan 2019 suspend..>2021-03-16 22:19 727K 
 BB18 Cupar reprinted..>2021-03-16 22:19 270K 
 BM1 Balmerino repri..>2021-03-16 22:19 209K 
 914 915 916 Winter 2..>2021-03-16 22:19 929K 
 Cal Railway Basin Ra..>2021-03-16 22:19 93K 
 Balgay blether bus 2..>2021-03-16 22:19 928K 
 C60.pdf 2021-03-16 22:19 200K 
 CP1 G1 Kinross Dolla..>2021-03-16 22:19 544K 
 Cleppie blether bus ..>2021-03-16 22:19 1.1M 
 DHS 1-6 August 2020.pdf2021-03-16 22:19 894K 
 Drop Off August 2018..>2021-03-16 22:19 635K 
 DRT Stirling BAlquhi..>2021-03-16 22:19 1.6M 
 DRT2 Rannoch Station..>2021-03-16 22:19 1.2M 
 DRT Stirling Killin ..>2021-03-16 22:19 2.5M 
 DRT1 SERVICE SUSPEND..>2021-03-16 22:19 1.2M 
 FIFEBUS jan 2021.pdf 2021-03-16 22:19 161K 
 E01 E02 Ember 1st Oc..>2021-03-16 22:19 78K 
 222 to 274 Scottish ..>2021-03-16 22:19 6.5M 
 GF1 correct XD Versi..>2021-03-16 22:19 154K 
 M9 UPDATE FEB 2021.pdf 2021-03-16 22:19 224K 
 M11 one journey only..>2021-03-16 22:19 75K 
 M8 to M92 to tweak b..>2021-03-16 22:19 1.2M 
 Lochee blether bus 2..>2021-03-16 22:19 1.1M 
 Henry Vintage Bus Du..>2021-03-16 22:19 788K 
 M92 UOPDATE FEB 2021..>2021-03-16 22:20 641K 
 NP1 reprint August 2..>2021-03-16 22:20 179K 
 Ninewells Shuttle Ja..>2021-03-16 22:20 592K 
 S60 160 Killin 3rd A..>2021-03-16 22:20 26K 
 F3 to F6 Go Flexi re..>2021-03-16 22:20 4.0M 
 MD1 to MD11 and MD17..>2021-03-16 22:20 2.2M 
 P1 Dollar Academy 20..>2021-03-16 22:20 915K 
 Shoppers Service Aug..>2021-03-16 22:20 672K 
 X007 Perth Aberdeen ..>2021-03-16 22:20 472K 
 X054 Dundee Stageco..>2021-03-16 22:20 57K 
 X026 replacmement X5..>2021-03-16 22:20 124K 
 X056 X056A X056B X05..>2021-03-16 22:20 43K 
 X061 Dundee Stageco..>2021-03-16 22:20 85K 
 X053 First Kinross S..>2021-03-16 22:20 10K 
 X90 SERVICE SUSPENDE..>2021-03-16 22:20 699K 
 000 AA xD Network Ma..>2021-04-16 20:30 898K 
 007 007A 007B 008 00..>2021-04-16 20:30 294K 
 009S 014S 017S Dunde..>2021-04-16 20:30 394K 
 002 Dundee Xplore D..>2021-04-16 20:30 1.2M 
 001 Dundee Xplore Du..>2021-04-16 20:30 1.3M 
 006A 006C Dundee Xpl..>2021-04-16 20:30 1.8M 
 005 005A 905 part 00..>2021-04-16 20:30 1.8M 
 009 010 909 910 Dund..>2021-04-16 20:30 1.2M 
 017 917 Dundee Xplo..>2021-04-16 20:30 1.0M 
 019 019A 020 020A Pe..>2021-04-16 20:30 168K 
 023S 027S 028S 029S ..>2021-04-16 20:30 294K 
 018 Dundee Xplore Du..>2021-04-16 20:30 1.0M 
 023 Dundee Xplore D..>2021-04-16 20:30 1.2M 
 022 Downfield Xplore..>2021-04-16 20:30 1.3M 
 032 033 Dundee Xplo..>2021-04-16 20:30 1.0M 
 028 928 Dundee Xplo..>2021-04-16 20:30 1.0M